Terug naar catalogus

COSMOS 1275 DEB

ActiefPO
NORAD 13018·DEBRIS·🇷🇺 Russia

Gelanceerd Jun 4, 1981 vanaf Plesetsk Cosmodrome

Loading…

Volgende Passages (komende 24 uur)

TLE

VersSource: Space-Track

Epoch: Sep 14, 2026, 02:09 UTC

1 13018U 81053EQ  26257.09016638  .00000783  00000-0  54940-3 0  9998
2 13018  82.6713 292.0139 0048799  32.9617 356.4269 13.96570189257641

Volg COSMOS 1275 DEB in realtime met AllMySat

Download on the App Store